This is the latest recevied weather packets stored in our database for station/object DH8TOM-4. If no packets are shown the sender has not sent any weather packets the latest 1 day(s).
| Time | Temp. | Humidity | Pressure | Rain* | Wind** | Luminosity | Snow |
|---|---|---|---|---|---|---|---|
| 1778052438 | 16.11° C | 100% | 1003.5 hPa | - | - | - | - |
| 1778051836 | 15.56° C | 100% | 1003.5 hPa | - | - | - | - |
| 1778051534 | 15.56° C | 100% | 1003.5 hPa | - | - | - | - |
| 1778051235 | 15° C | 100% | 1003.6 hPa | - | - | - | - |
| 1778050933 | 14.44° C | 100% | 1003.6 hPa | - | - | - | - |
| 1778050632 | 14.44° C | 100% | 1003.6 hPa | - | - | - | - |
| 1778050331 | 14.44° C | 100% | 1003.6 hPa | - | - | - | - |
| 1778049729 | 14.44° C | 100% | 1003.7 hPa | - | - | - | - |
| 1778048826 | 13.33° C | 100% | 1003.6 hPa | - | - | - | - |
| 1778048224 | 13.33° C | 100% | 1003.5 hPa | - | - | - | - |
| 1778047321 | 13.33° C | 100% | 1003.5 hPa | - | - | - | - |
| 1778047019 | 12.78° C | 100% | 1003.4 hPa | - | - | - | - |
| 1778046417 | 12.78° C | 100% | 1003.4 hPa | - | - | - | - |
| 1778045514 | 12.78° C | 100% | 1003.4 hPa | - | - | - | - |
| 1778044611 | 12.22° C | 100% | 1003.2 hPa | - | - | - | - |
| 1778044310 | 12.22° C | 100% | 1003.2 hPa | - | - | - | - |
| 1778044008 | 12.22° C | 100% | 1003.1 hPa | - | - | - | - |
| 1778043407 | 12.22° C | 100% | 1003.1 hPa | - | - | - | - |
| 1778042804 | 12.22° C | 100% | 1002.9 hPa | - | - | - | - |
| 1778042504 | 12.22° C | 100% | 1002.9 hPa | - | - | - | - |
| 1778041601 | 11.67° C | 100% | 1002.9 hPa | - | - | - | - |
| 1778041300 | 11.67° C | 100% | 1002.9 hPa | - | - | - | - |
| 1778040998 | 11.67° C | 100% | 1002.8 hPa | - | - | - | - |
| 1778040698 | 11.67° C | 100% | 1002.8 hPa | - | - | - | - |
| 1778040397 | 11.67° C | 100% | 1002.7 hPa | - | - | - | - |
* Rain since midnight (hover to see other rain measurements)
** Current wind speed in m/s (hover to see current wind gust speed)